• In Czech Republic
  • List of Countries
  • For 7 days
  • Water Temperature
  • Satellite Maps
  • Weather Map
  • Weather Widgets
  • user-avatar
    Login

    Hourly Weather Ondjiwa

    Today, 25 July, Tuesday

    Time Temperature Precipitation Wind Pressure Humidity
    00:00 +16°C° 0 mm 2 mps 669 mmHg 22%
    01:00 +16°C° 0 mm 2 mps 669 mmHg 25%
    02:00 +15°C° 0 mm 2 mps 669 mmHg 27%
    03:00 +14°C° 0 mm 2 mps 669 mmHg 28%
    04:00 +14°C° 0 mm 2 mps 669 mmHg 30%
    05:00 +13°C° 0 mm 2 mps 669 mmHg 30%
    06:00 +13°C° 0 mm 2 mps 669 mmHg 31%
    07:00 +13°C° 0 mm 2 mps 669 mmHg 32%
    08:00 +17°C° 0 mm 2 mps 670 mmHg 26%
    09:00 +21°C° 0 mm 3 mps 671 mmHg 21%
    10:00 +26°C° 0 mm 4 mps 672 mmHg 15%
    11:00 +28°C° 0 mm 3 mps 672 mmHg 13%
    12:00 +29°C° 0 mm 3 mps 672 mmHg 12%
    13:00 +31°C° 0 mm 2 mps 671 mmHg 10%
    14:00 +31°C° 0 mm 2 mps 671 mmHg 10%
    15:00 +31°C° 0 mm 2 mps 670 mmHg 9%
    16:00 +31°C° 0 mm 2 mps 670 mmHg 9%
    17:00 +28°C° 0 mm 2 mps 669 mmHg 11%
    18:00 +25°C° 0 mm 2 mps 669 mmHg 13%
    19:00 +21°C° 0 mm 3 mps 668 mmHg 15%
    20:00 +20°C° 0 mm 3 mps 669 mmHg 16%
    21:00 +19°C° 0 mm 2 mps 669 mmHg 17%
    22:00 +18°C° 0 mm 2 mps 669 mmHg 17%
    23:00 +17°C° 0 mm 2 mps 669 mmHg 18%

    Tomorrow, 26 July, Wednesday

    Time Temperature Precipitation Wind Pressure Humidity
    00:00 +16°C° 0 mm 2 mps 669 mmHg 19%
    01:00 +16°C° 0 mm 2 mps 668 mmHg 20%
    02:00 +15°C° 0 mm 2 mps 668 mmHg 21%
    03:00 +14°C° 0 mm 2 mps 668 mmHg 22%
    04:00 +14°C° 0 mm 2 mps 668 mmHg 24%
    05:00 +13°C° 0 mm 2 mps 668 mmHg 26%
    06:00 +13°C° 0 mm 2 mps 668 mmHg 27%
    07:00 +12°C° 0 mm 2 mps 669 mmHg 29%
    08:00 +17°C° 0 mm 2 mps 670 mmHg 25%
    09:00 +21°C° 0 mm 3 mps 671 mmHg 20%
    10:00 +26°C° 0 mm 4 mps 672 mmHg 15%
    11:00 +28°C° 0 mm 4 mps 672 mmHg 13%
    12:00 +29°C° 0 mm 3 mps 671 mmHg 11%
    13:00 +31°C° 0 mm 3 mps 671 mmHg 9%
    14:00 +31°C° 0 mm 3 mps 670 mmHg 9%
    15:00 +31°C° 0 mm 2 mps 670 mmHg 9%
    16:00 +31°C° 0 mm 2 mps 669 mmHg 8%
    17:00 +28°C° 0 mm 2 mps 669 mmHg 10%
    18:00 +25°C° 0 mm 2 mps 668 mmHg 12%
    19:00 +21°C° 0 mm 2 mps 668 mmHg 15%
    20:00 +20°C° 0 mm 2 mps 668 mmHg 16%
    21:00 +19°C° 0 mm 2 mps 668 mmHg 17%
    22:00 +18°C° 0 mm 2 mps 669 mmHg 18%
    23:00 +17°C° 0 mm 2 mps 669 mmHg 19%

    Day after tomorrow, 27 July, Thursday

    Time Temperature Precipitation Wind Pressure Humidity
    00:00 +17°C° 0 mm 3 mps 669 mmHg 20%
    01:00 +16°C° 0 mm 3 mps 668 mmHg 22%
    02:00 +14°C° 0 mm 3 mps 668 mmHg 23%
    03:00 +14°C° 0 mm 3 mps 668 mmHg 24%
    04:00 +13°C° 0 mm 3 mps 668 mmHg 25%
    05:00 +13°C° 0 mm 3 mps 668 mmHg 27%
    06:00 +13°C° 0 mm 3 mps 669 mmHg 28%
    07:00 +13°C° 0 mm 3 mps 669 mmHg 29%
    08:00 +18°C° 0 mm 4 mps 670 mmHg 25%
    09:00 +21°C° 0 mm 5 mps 671 mmHg 21%
    10:00 +26°C° 0 mm 6 mps 672 mmHg 16%
    11:00 +28°C° 0 mm 5 mps 672 mmHg 15%
    12:00 +30°C° 0 mm 5 mps 671 mmHg 13%
    13:00 +33°C° 0 mm 4 mps 671 mmHg 11%
    14:00 +33°C° 0 mm 3 mps 670 mmHg 11%
    15:00 +33°C° 0 mm 3 mps 670 mmHg 10%
    16:00 +32°C° 0 mm 2 mps 669 mmHg 10%
    17:00 +29°C° 0 mm 2 mps 669 mmHg 12%
    18:00 +26°C° 0 mm 2 mps 669 mmHg 15%
    19:00 +23°C° 0 mm 2 mps 668 mmHg 17%
    20:00 +21°C° 0 mm 2 mps 669 mmHg 18%
    21:00 +20°C° 0 mm 2 mps 669 mmHg 19%
    22:00 +19°C° 0 mm 3 mps 669 mmHg 20%
    23:00 +18°C° 0 mm 3 mps 669 mmHg 22%

    28 July, Friday

    Time Temperature Precipitation Wind Pressure Humidity
    00:00 +17°C° 0 mm 3 mps 669 mmHg 23%
    01:00 +17°C° 0 mm 3 mps 668 mmHg 24%
    02:00 +16°C° 0 mm 3 mps 668 mmHg 26%
    03:00 +16°C° 0 mm 3 mps 668 mmHg 28%
    04:00 +14°C° 0 mm 3 mps 668 mmHg 30%
    05:00 +14°C° 0 mm 3 mps 669 mmHg 31%
    06:00 +14°C° 0 mm 3 mps 669 mmHg 33%
    07:00 +13°C° 0 mm 3 mps 670 mmHg 34%
    08:00 +18°C° 0 mm 4 mps 671 mmHg 29%
    09:00 +22°C° 0 mm 5 mps 672 mmHg 24%
    10:00 +26°C° 0 mm 6 mps 673 mmHg 19%
    11:00 +28°C° 0 mm 5 mps 672 mmHg 17%
    12:00 +30°C° 0 mm 5 mps 672 mmHg 15%
    13:00 +33°C° 0 mm 4 mps 671 mmHg 12%
    14:00 +33°C° 0 mm 4 mps 671 mmHg 12%
    15:00 +33°C° 0 mm 3 mps 670 mmHg 12%
    16:00 +33°C° 0 mm 3 mps 670 mmHg 11%
    17:00 +29°C° 0 mm 3 mps 670 mmHg 14%
    18:00 +26°C° 0 mm 3 mps 669 mmHg 16%
    19:00 +22°C° 0 mm 3 mps 669 mmHg 19%
    20:00 +21°C° 0 mm 3 mps 669 mmHg 20%
    21:00 +20°C° 0 mm 3 mps 670 mmHg 21%
    22:00 +19°C° 0 mm 3 mps 670 mmHg 22%
    23:00 +18°C° 0 mm 3 mps 670 mmHg 24%

    29 July, Saturday

    Time Temperature Precipitation Wind Pressure Humidity
    00:00 +18°C° 0 mm 3 mps 670 mmHg 25%
    01:00 +17°C° 0 mm 4 mps 670 mmHg 27%
    02:00 +16°C° 0 mm 3 mps 669 mmHg 30%
    03:00 +16°C° 0 mm 3 mps 669 mmHg 32%
    04:00 +14°C° 0 mm 3 mps 669 mmHg 35%
    05:00 +14°C° 0 mm 3 mps 670 mmHg 36%
    06:00 +13°C° 0 mm 3 mps 670 mmHg 38%
    07:00 +13°C° 0 mm 3 mps 670 mmHg 40%
    08:00 +18°C° 0 mm 4 mps 671 mmHg 34%
    09:00 +21°C° 0 mm 5 mps 672 mmHg 28%
    10:00 +26°C° 0 mm 6 mps 673 mmHg 22%
    11:00 +27°C° 0 mm 5 mps 673 mmHg 19%
    12:00 +29°C° 0 mm 4 mps 672 mmHg 16%
    13:00 +30°C° 0 mm 4 mps 671 mmHg 13%
    14:00 +31°C° 0 mm 3 mps 671 mmHg 13%
    15:00 +31°C° 0 mm 3 mps 670 mmHg 12%
    16:00 +31°C° 0 mm 3 mps 670 mmHg 11%
    17:00 +28°C° 0 mm 3 mps 670 mmHg 14%
    18:00 +25°C° 0 mm 3 mps 670 mmHg 17%
    19:00 +21°C° 0 mm 2 mps 670 mmHg 20%
    20:00 +20°C° 0 mm 3 mps 670 mmHg 23%
    21:00 +19°C° 0 mm 3 mps 670 mmHg 25%
    22:00 +18°C° 0 mm 3 mps 670 mmHg 28%
    23:00 +17°C° 0 mm 3 mps 670 mmHg 30%

    30 July, Sunday

    Time Temperature Precipitation Wind Pressure Humidity
    00:00 +17°C° 0 mm 3 mps 670 mmHg 31%
    01:00 +16°C° 0 mm 3 mps 669 mmHg 33%
    02:00 +16°C° 0 mm 3 mps 669 mmHg 35%
    03:00 +14°C° 0 mm 3 mps 669 mmHg 36%
    04:00 +13°C° 0 mm 3 mps 669 mmHg 38%
    05:00 +13°C° 0 mm 3 mps 669 mmHg 38%
    06:00 +13°C° 0 mm 3 mps 670 mmHg 39%
    07:00 +13°C° 0 mm 3 mps 670 mmHg 40%
    08:00 +18°C° 0 mm 4 mps 671 mmHg 34%
    09:00 +22°C° 0 mm 5 mps 672 mmHg 27%
    10:00 +26°C° 0 mm 6 mps 672 mmHg 21%
    11:00 +28°C° 0 mm 5 mps 672 mmHg 18%
    12:00 +29°C° 0 mm 4 mps 671 mmHg 16%
    13:00 +30°C° 0 mm 4 mps 670 mmHg 14%
    14:00 +31°C° 0 mm 3 mps 670 mmHg 13%
    15:00 +31°C° 0 mm 3 mps 669 mmHg 13%
    16:00 +31°C° 0 mm 3 mps 669 mmHg 13%
    17:00 +28°C° 0 mm 3 mps 669 mmHg 16%
    18:00 +25°C° 0 mm 3 mps 669 mmHg 19%
    19:00 +21°C° 0 mm 2 mps 668 mmHg 22%
    20:00 +20°C° 0 mm 3 mps 669 mmHg 25%
    21:00 +19°C° 0 mm 3 mps 669 mmHg 27%
    22:00 +18°C° 0 mm 3 mps 669 mmHg 30%
    23:00 +18°C° 0 mm 3 mps 669 mmHg 33%
    Show more